Regional Weather Roundup
Issued by NWS Sioux Falls, SD

Home | Current Version | Previous Version | Text Only | Print | Product List | Glossary On
Versions: 1 2 3 4 5 6 7 8 9 10 11 12 13 14 15 16 17 18 19 20 21 22 23 24 25 26 27 28 29 30 31 32 33 34 35 36 37 38 39 40 41 42 43 44 45 46 47 48 49 50
000
ASUS43 KFSD 291002
RWRFSD

WEATHER ROUNDUP FOR SE SOUTH DAKOTA/SW MINNESOTA/NW IOWA
NATIONAL WEATHER SERVICE SIOUX FALLS SD
500 AM CDT SUN MAY 29 2016

NOTE: "FAIR" INDICATES FEW OR NO CLOUDS BELOW 12,000 FEET WITH NO
SIGNIFICANT WEATHER AND OR OBSTRUCTIONS TO VISIBILITY.


SDZ038>040-050-052>070-291100-
SOUTHEAST SOUTH DAKOTA

CITY           SKY/WX    TMP DP  RH WIND       PRES   REMARKS
BROOKINGS      CLOUDY    59  57  93 SW5       29.95R
CHAMBERLAIN    NOT AVBL
HURON          CLEAR     54  52  93 W5        29.96R
MADISON        FAIR      57  57 100 W9G16     29.97R
MITCHELL       CLEAR     59  57  93 W6        29.97S
SIOUX FALLS    CLOUDY    59  56  89 W3        29.97R
WINNER         FAIR      56  50  80 SW7       30.01R
YANKTON        PTCLDY    57  54  88 CALM      29.98R
$$

MNZ071-072-080-081-089-090-097-098-291100-
SOUTHWEST MINNESOTA

CITY           SKY/WX    TMP DP  RH WIND       PRES   REMARKS
FAIRMONT       CLEAR     59  54  82 W10       29.93R
JACKSON        MOCLDY    59  55  88 W8        29.95S FOG
LUVERNE        CLOUDY    55  54  94 NW3       29.97S
MARSHALL       CLEAR     57  55  93 W9        29.93R
MONTEVIDEO     CLEAR     57  57 100 CALM      29.91F
PIPESTONE      CLOUDY    57  55  94 W3        29.96R FOG
REDWOOD FALLS  PTCLDY    59  56  89 W8        29.90S
TRACY          CLEAR     59  56  92 W3        29.94S
WINDOM         CLOUDY    57  55  94 W7        29.94R FOG
WORTHINGTON    FOG       57  56  96 W9        29.97R VSB 1/4
$$

IAZ001>003-012>014-020>022-031-032-NEZ013-014-SDZ071-291100-
NORTHWEST IOWA

CITY           SKY/WX    TMP DP  RH WIND       PRES   REMARKS
ESTHERVILLE    CLOUDY    58  57  97 W9        29.94S
SIOUX CITY     CLEAR     54  52  93 CALM      29.99S
SPENCER        CLEAR     58  56  93 W7        29.97R
STORM LAKE     CLEAR     57  57 100 W9        29.99R FOG
$$

ABBREVIATIONS USED IN REMARKS
   TC - TEMPERATURE IN CELSIUS
  WCI - WIND CHILL INDEX
   HX - HEAT INDEX
  VSB - VISIBILITY





USA.gov is the U.S. government's official web portal to all federal, state and local government web resources and services.